Regional Weather Roundup
Issued by NWS

Home | Current Version | Previous Version | Text Only | Print | Product List | Glossary Off
Versions: 1 2 3 4 5 6 7 8 9 10 11 12 13 14 15 16 17 18 19 20 21 22 23 24 25 26 27 28 29 30 31 32 33 34 35 36 37 38 39 40 41 42 43 44 45 46 47 48 49 50

000
ASUS43 KMKX 210800
RWRWI

WISCONSIN REGIONAL WEATHER ROUNDUP
NATIONAL WEATHER SERVICE MILWAUKEE/SULLIVAN WI
200 AM CST SUN DEC 21 2014

NOTE: "FAIR" INDICATES FEW OR NO CLOUDS BELOW 12,000 FEET WITH NO
SIGNIFICANT WEATHER AND/OR OBSTRUCTIONS TO VISIBILITY.

WIZ001-002-006>008-014>016-023>028-210900-
NORTHWEST WISCONSIN

CITY           SKY/WX    TMP DP  RH WIND       PRES   REMARKS
SUPERIOR ARPT  CLOUDY    32  28  84 SW13      30.05S WCI  22
ASHLAND        CLOUDY    31  26  82 S13       30.08S WCI  21
HAYWARD        CLOUDY    30  25  81 S12       30.06S WCI  20
SIREN          CLOUDY    31  28  86 SW14      30.06S WCI  21
CUMBERLAND     CLOUDY    30  28  93 S10       30.06S WCI  21
RICE LAKE      CLOUDY    31  28  91 S10       30.09S FOG     WCI  22
CHETEK         CLOUDY    30  28  93 S6        30.09S FOG     WCI  24
LADYSMITH      CLOUDY    30  29  94 S6        30.11R FOG     WCI  24
EAU CLAIRE     NOT AVBL
MENOMONIE      CLOUDY    31  30  94 E7        30.09F FOG     WCI  25
NEW RICHMOND   CLOUDY    31  29  91 SE6       30.06F WCI  25
OSCEOLA        CLOUDY    32  28  86 SE6       30.08F WCI  26
$$

WIZ003>005-009-010-017-018-210900-
NORTH CENTRAL WISCONSIN

CITY           SKY/WX    TMP DP  RH WIND       PRES   REMARKS
MANITOWISH WTR CLOUDY    27  27 100 S7        30.06F FOG     WCI  19
ARBOR VITAE    CLOUDY    29  28  93 S7        30.08S FOG     WCI  22
WOODRUFF       CLOUDY    29  28  93 S7        30.08S FOG     WCI  22
RHINELANDER    CLOUDY    26  24  92 S6        30.10S FOG     WCI  19
EAGLE RIVER    LGT SNOW  27  26  98 SE3       30.09S
LAND O LAKES   LGT SNOW  28  27  96 S5        30.10S WCI  22
PHILLIPS       CLOUDY    28  26  95 S6        30.07F FOG     WCI  21
TOMAHAWK       CLOUDY    27  26  94 CALM      30.11S FOG
MEDFORD        CLOUDY    28  26  94 S7        30.09F FOG     WCI  20
MERRILL        CLOUDY    28  27  96 S5        30.12S FOG     WCI  23
$$

WIZ029-030-035-036-043>047-210900-
CENTRAL WISCONSIN

CITY           SKY/WX    TMP DP  RH WIND       PRES   REMARKS
WAUSAU         CLOUDY    28  26  92 S7        30.12S FOG     WCI  21
MOSINEE        CLOUDY    28  28 100 S6        30.14S FOG     WCI  22
MARSHFIELD     CLOUDY    29  26  89 S8        30.12S FOG     WCI  21
STEVENS POINT  CLOUDY    27  26  93 S5        30.15F FOG     WCI  22
WAUPACA        CLOUDY    31  28  90 SE3       30.18S FOG
WAUTOMA        CLOUDY    30  28  93 SE3       30.18S FOG
WISC RAPIDS    CLOUDY    29  25  85 S5        30.16S FOG     WCI  24
CAMP DOUGLAS   NOT AVBL
$$

WIZ011>013-019>022-031-037>040-048>050-210900-
NORTHEAST WISCONSIN

CITY           SKY/WX    TMP DP  RH WIND       PRES   REMARKS
ANTIGO         CLOUDY    25  25  99 S7        30.13S FOG     WCI  18
SHAWANO        CLOUDY    30  27  87 CALM      30.18S FOG
OCONTO         CLOUDY    28  27  95 CALM      30.20S
STURGEON BAY   CLOUDY    28  25  86 CALM      30.22R
GREEN BAY      CLOUDY    30  27  88 S6        30.20S FOG     WCI  24
MANITOWOC      NOT AVBL
APPLETON       CLOUDY    30  28  93 S6        30.19S FOG     WCI  24
CLINTONVILLE   CLOUDY    30  28  93 S5        30.18S FOG     WCI  25
OSHKOSH        CLOUDY    30  26  85 S8        30.19R FOG     WCI  22
$$

WIZ032>034-041-042-053>061-210900-
SOUTHWEST WISCONSIN

CITY           SKY/WX    TMP DP  RH WIND       PRES   REMARKS
LA CROSSE      CLOUDY    33  28  81 SE8       30.12S WCI  26
SPARTA         CLOUDY    31  27  88 SE5       30.14F FOG     WCI  26
VIROQUA        CLOUDY    29  29 100 SE7       30.11F WCI  22
BOSCOBEL       CLOUDY    33  29  85 VRB3      30.16S FOG
PRAIRIE DU CHI CLOUDY    32  30  93 E5        30.14S FOG     WCI  27
PLATTEVILLE    CLOUDY    32  30  94 CALM      30.16R
$$

WIZ056-057-062-063-064-067-068-210900-
SOUTH CENTRAL WISCONSIN

CITY           SKY/WX    TMP DP  RH WIND       PRES   REMARKS
REEDSBURG      CLOUDY    29  27  92 SE3       30.16R FOG
BARABOO/DELLS  CLOUDY    29  27  90 S6        30.16S FOG     WCI  23
LONE ROCK      NOT AVBL
MINERAL POINT  CLOUDY    32  30  93 SE7       30.14S FOG     WCI  26
MADISON        CLOUDY    31  27  85 S8        30.18S FOG     WCI  23
MIDDLETON      CLOUDY    32  29  90 S6        30.18S WCI  26
WATERTOWN      CLOUDY    30  28  94 CALM      30.19S
MONROE         CLOUDY    32  30  93 S8        30.16S FOG     WCI  25
JANESVILLE     CLOUDY    32  30  93 S6        30.19S WCI  26
$$

WIZ051-052-058>065-066-070>072-210900-
SOUTHEAST WISCONSIN

CITY           SKY/WX    TMP DP  RH WIND       PRES   REMARKS
MILWAUKEE      CLOUDY    32  25  75 S3        30.22S
WAUKESHA       CLOUDY    30  27  86 S6        30.21R WCI  24
MILWAUKEE/TIMM CLOUDY    32  27  80 S5        30.22S WCI  27
RACINE         CLOUDY    32  25  75 S5        30.24R WCI  27
BURLINGTON     CLOUDY    29  26  88 CALM      30.21S
KENOSHA        CLOUDY    32  26  78 S6        30.22S WCI  26
FOND DU LAC    CLOUDY    30  26  85 S6        30.20R WCI  24
SHEBOYGAN      CLOUDY    30  26  85 S5        30.21R WCI  25
WEST BEND      CLOUDY    30  27  86 CALM      30.20S
JUNEAU         CLOUDY    29  27  90 SE6       30.20S FOG     WCI  23
$$

LSZ147-162-210900-
LAKE SUPERIOR

STATION/POSITION TIME  TEMP    WIND        PRES    WAVE
                       AIR SEA DIR/SP/G            HT/PER
                 (UTC) (F)     (DEG/KT/KT) (MB)    (FT/S)
DEVILS ISLAND    0700   32     200/  9/ 14 1019.2F
PORT WING        0700   32     200/  7/ 13 1018.3F
SAXON HARBOR     0700   33     200/  3/  8 1018.6F
$$

LMZ867-665-643>646-210900-
LAKE MICHIGAN

STATION/POSITION TIME  TEMP    WIND        PRES    WAVE
                       AIR SEA DIR/SP/G            HT/PER
                 (UTC) (F)     (DEG/KT/KT) (MB)    (FT/S)
CHAMBERS ISLAND  0700   28      CALM  /  1 1022.7F
NORTHPORT PIER   0700   30     200/  1/  2 1022.7S
SISTER BAY       0713             CALM       N/A
ALGOMA LAKESHORE 0714             CALM       N/A
KEWAUNEE LAKESHO 0700   30     220/  1/  4 1022.0F
SHEBOYGAN LAKESH 0700   31 34  200/  7/  8 1024.0F
PORT WASHINGTON  0700   32     210/  3/  5 1024.0S
MILWAUKEE LAKESH 0700   33     200/  7/  8   N/A
KENOSHA   LAKESH 0700   33     190/  4/  7 1023.4F
$$

TC  - TEMPERATURE IN CELSIUS
VSB - VISIBILITY IN STATUTE MILES
WCI - WIND CHILL INDEX
HX  - HEAT INDEX



USA.gov is the U.S. government's official web portal to all federal, state and local government web resources and services.